Flag for Slovakia Weather past 2 weeks in Bratislava, Slovakia

Now
57 °F

Clear.


Feels Like: 57 °F
Forecast: 50 / 71 °F
Wind: 2 mph from Northeast

Location: Bratislava Ivanka


UV Index: 3 (Moderate)

Visibility: 10 mi


Pressure: 30.04 "Hg

Humidity: 82%

Dew point: 52 °F

Location of BratislavaLocation

Historic Weather in Bratislava

°F

Bratislava temperature yesterday

Maximum temperature yesterday: 64 °F (at 3:30 PM)
Minimum temperature yesterday: 54 °F (at 12:30 AM)
Average temperature yesterday: 57 °F

Past Weeks' High & Low Weather Summary

 TemperatureHumidityPressure
High72 °F (Apr 23, 2:30 PM)94% (Apr 19, 4:30 PM)30.24 "Hg (Apr 19, 4:30 PM)
Low37 °F (Apr 18, 5:30 AM)21% (Apr 18, 2:00 PM)29.68 "Hg (Apr 19, 3:00 PM)
Average52 °F66%29.97 "Hg
* Reported Apr 8 9:00 PM — Apr 23 9:30 PM, Bratislava, Weather by CustomWeather, © 2014

Note: Actual official high and low records may vary slightly from our data, if they occured in-between our weather recording intervals... More about our weather records

Advertising

Historic Weather Conditions — Data for Previous 24 hours

 ConditionsComfort  
Time TempWeatherWind HumidityBarometerVisibility
9:30 PM
Apr 23
61 °FClear.2 mph77%30.04 "Hg10 mi
9:00 PM61 °FClear.3 mph77%30.04 "Hg10 mi
8:30 PM61 °FPassing clouds.7 mph77%30.04 "HgN/A
8:00 PM64 °FPassing clouds.6 mph73%30.01 "HgN/A
7:30 PM66 °FPassing clouds.7 mph64%30.01 "HgN/A
7:00 PM68 °FPassing clouds.3 mph60%30.01 "HgN/A
6:30 PM70 °FPassing clouds.6 mph53%30.01 "HgN/A
6:00 PM70 °FPassing clouds.7 mph50%30.01 "HgN/A
5:30 PM72 °FScattered clouds.8 mph44%30.01 "HgN/A
5:00 PM72 °FScattered clouds.7 mph41%30.01 "HgN/A
4:30 PM72 °FScattered clouds.8 mph41%30.01 "HgN/A
4:00 PM72 °FScattered clouds.3 mph47%30.01 "HgN/A
3:30 PM72 °FScattered clouds.2 mph47%30.01 "HgN/A
3:00 PM72 °FPassing clouds.2 mph50%30.04 "HgN/A
2:30 PM72 °FScattered clouds.3 mph50%30.04 "HgN/A
2:00 PM70 °FScattered clouds.2 mph57%30.04 "HgN/A
1:30 PM68 °FScattered clouds.3 mph56%30.07 "HgN/A
1:00 PM68 °FScattered clouds.5 mph64%30.07 "HgN/A
12:30 PM63 °FPartly sunny.8 mph73%30.07 "HgN/A
12:00 PM66 °FPartly sunny.5 mph64%30.07 "HgN/A
11:30 AM66 °FScattered clouds.2 mph60%30.07 "HgN/A
11:00 AM66 °FScattered clouds.3 mph64%30.07 "HgN/A
10:30 AM66 °FScattered clouds.3 mph64%30.07 "HgN/A
10:00 AM66 °FPassing clouds.2 mph64%30.07 "HgN/A
9:30 AM63 °FPassing clouds.5 mph73%30.07 "HgN/A
9:00 AM63 °FPassing clouds.6 mph73%30.07 "HgN/A
8:30 AM61 °FPassing clouds.3 mph77%30.07 "HgN/A
8:00 AM57 °FSleet. Passing clouds.1 mph88%30.07 "Hg5 mi
7:30 AM55 °FSleet. Light fog.1 mph88%30.07 "Hg4 mi
7:00 AM52 °FCool.No wind94%30.07 "Hg4 mi
6:30 AM50 °FSleet. Light fog.No wind94%30.07 "Hg2 mi
6:00 AM50 °FLight fog.No wind94%30.04 "Hg2 mi
5:30 AM50 °FCool.1 mph94%30.04 "Hg2 mi
5:00 AM50 °FCool.1 mph88%30.04 "Hg3 mi
4:30 AM48 °FSleet. Overcast.1 mph94%30.04 "Hg2 mi
4:00 AM50 °FCool.1 mph94%30.01 "Hg2 mi
3:30 AM52 °FSleet. Overcast.No wind94%30.01 "Hg3 mi
3:00 AM50 °FSleet. Overcast.1 mph94%30.01 "Hg3 mi
2:30 AM50 °FSleet. Overcast.2 mph94%30.01 "Hg3 mi
2:00 AM54 °FCool.1 mph94%30.01 "HgN/A
1:30 AM54 °FFog.2 mph94%30.01 "HgN/A
1:00 AM54 °FPassing clouds.1 mph94%30.01 "HgN/A
12:30 AM54 °FPartly cloudy.1 mph94%30.01 "HgN/A
12:00 AM54 °FPartly cloudy.2 mph94%30.01 "HgN/A
11:30 PM
Apr 22
54 °FClear.2 mph94%30.01 "Hg10 mi
11:00 PM55 °FPassing clouds.2 mph88%29.98 "HgN/A
10:30 PM55 °FPassing clouds.3 mph88%29.98 "HgN/A
10:00 PM55 °FPassing clouds.1 mph88%29.98 "HgN/A
Weather by CustomWeather, © 2014

See weather overview